TimeEST,TemperatureF,Dew PointF,Humidity,Sea Level PressureIn,VisibilityMPH,Wind Direction,Wind SpeedMPH,Gust SpeedMPH,PrecipitationIn,Events,Conditions,WindDirDegrees,DateUTC
12:25 AM,19.4,15.8,86,29.87,2.5,ENE,4.6,-,0.00,Snow,Light Snow,70,2013-02-05 05:25:00
12:43 AM,19.4,15.8,86,29.87,3.0,ENE,3.5,-,0.00,Snow,Light Snow,60,2013-02-05 05:43:00
12:53 AM,19.0,14.0,81,29.92,4.0,NE,4.6,-,0.00,Snow,Light Snow,50,2013-02-05 05:53:00
1:53 AM,19.0,14.0,81,29.91,4.0,NE,4.6,-,0.00,Snow,Light Snow,50,2013-02-05 06:53:00
2:53 AM,19.0,14.0,81,29.91,10.0,East,3.5,-,0.00,,Overcast,80,2013-02-05 07:53:00
3:29 AM,19.4,14.0,80,29.87,10.0,NE,3.5,-,N/A,,Overcast,50,2013-02-05 08:29:00
3:53 AM,19.0,12.9,77,29.92,10.0,Calm,Calm,-,N/A,,Overcast,0,2013-02-05 08:53:00
4:53 AM,19.0,14.0,81,29.91,10.0,NE,3.5,-,N/A,,Overcast,50,2013-02-05 09:53:00
5:53 AM,19.0,12.9,77,29.93,10.0,Calm,Calm,-,N/A,,Overcast,0,2013-02-05 10:53:00
6:53 AM,19.0,12.9,77,29.94,4.0,Calm,Calm,-,0.00,Snow,Light Snow,0,2013-02-05 11:53:00
7:53 AM,18.0,14.0,84,29.96,5.0,Calm,Calm,-,0.00,Snow,Light Snow,0,2013-02-05 12:53:00
8:53 AM,19.0,14.0,81,29.96,6.0,Calm,Calm,-,0.00,,Haze,0,2013-02-05 13:53:00
9:53 AM,21.9,14.0,72,29.95,10.0,Calm,Calm,-,N/A,,Clear,0,2013-02-05 14:53:00
11:53 AM,25.0,14.0,63,29.93,10.0,Calm,Calm,-,N/A,,Clear,0,2013-02-05 16:53:00
12:53 PM,27.0,14.0,58,29.89,10.0,Calm,Calm,-,N/A,,Clear,0,2013-02-05 17:53:00
1:53 PM,28.0,15.1,58,29.86,10.0,Calm,Calm,-,N/A,,Mostly Cloudy,0,2013-02-05 18:53:00
2:53 PM,28.9,16.0,58,29.86,10.0,Calm,Calm,-,N/A,,Overcast,0,2013-02-05 19:53:00
3:53 PM,28.9,17.1,61,29.84,10.0,NE,4.6,-,N/A,,Overcast,50,2013-02-05 20:53:00
4:53 PM,28.9,19.0,67,29.84,10.0,SE,5.8,-,N/A,,Overcast,140,2013-02-05 21:53:00
5:53 PM,28.9,19.0,67,29.85,10.0,Calm,Calm,-,0.00,,Overcast,0,2013-02-05 22:53:00
6:53 PM,28.0,19.9,72,29.85,5.0,Calm,Calm,-,0.00,Snow,Light Snow,0,2013-02-05 23:53:00
7:11 PM,26.6,19.4,74,29.82,6.0,Calm,Calm,-,0.00,,Haze,0,2013-02-06 00:11:00
7:53 PM,27.0,21.0,78,29.87,10.0,Calm,Calm,-,0.00,,Overcast,0,2013-02-06 00:53:00
8:24 PM,28.4,21.2,74,29.83,6.0,Calm,Calm,-,0.00,,Haze,0,2013-02-06 01:24:00
8:53 PM,27.0,21.9,81,29.87,4.0,Calm,Calm,-,0.00,Snow,Light Snow,0,2013-02-06 01:53:00
9:24 PM,26.6,21.2,80,29.84,5.0,Calm,Calm,-,0.00,Snow,Light Snow,0,2013-02-06 02:24:00
9:53 PM,26.1,21.9,84,29.89,7.0,Calm,Calm,-,0.00,,Mostly Cloudy,0,2013-02-06 02:53:00
10:53 PM,24.1,21.0,88,29.91,8.0,Calm,Calm,-,N/A,,Overcast,0,2013-02-06 03:53:00
11:53 PM,26.1,21.0,81,29.90,9.0,SSW,3.5,-,N/A,,Overcast,210,2013-02-06 04:53:00